SARAL

导读

SARAL卫星是印度空间研究组织与法国国家空间研究中心合作研发的海洋卫星,于2013年2月25日发射升空。该卫星主要任务是监测海洋海平面高度、海流信息与海洋环流,同时也可测量海冰参数、近海海平面高度,为海洋学研究、气候监测及相关领域提供重要数据支撑,推动了国际航天领域在海洋观测方向的合作发展。

Basic Information
目录编号:
39086
目录名称:
SARAL
国际标识:
2013-009A
轨道中心:
EARTH
卫星名称:
SARAL
卫星全名:
--
卫星状态:
在轨 (已飞行4860 天)
发射日期:
2013-02-25 UTC
国别 :
印度 (IN)
星等 :
--
Orbit Information
数据来源 国际轨道数据 AOE轨道数据
星历时间 2026-06-17T12:20:02+0800
4小时前
查看轨道信息
2026-06-15T08:00:00+0800
2天前
查看轨道信息
半长轴 7160.338km 7160.339km
偏心率 0.000071 0.0000656
轨道倾角 98.556° 98.554°
近地点辐角 309.469° 314.006°
升交点赤经 354.748° 352.596°
平近点角 50.643° 324.536°
近地点 781.692km 781.732km
远地点 782.71km 782.672km
周期 100.499分钟 100.499分钟
每日圈数 14.328559 14.328555
Detailed Information
使用方式:
暂无
2D Orbit Map
3D Orbit Map
Orbit Altitude Analysis Chart
Orbit Inclination Analysis Chart
Orbit Comprehensive Analysis Chart
View Comprehensive Chart